Regional Weather Roundup
Issued by NWS

Home | Current Version | Previous Version | Text Only | Print | Product List | Glossary Off
Versions: 1 2 3 4 5 6 7 8 9 10 11 12 13 14 15 16 17 18 19 20 21 22 23 24 25 26 27 28 29 30 31 32 33 34 35 36 37 38 39 40 41 42 43 44 45 46 47 48 49 50

000
ASUS43 KDMX 031807
RWRIA

WEATHER ROUNDUP FOR IOWA
NATIONAL WEATHER SERVICE DES MOINES IA
100 PM CDT FRI JUL 03 2015

NOTE: "FAIR" INDICATES FEW OR NO CLOUDS BELOW 12,000 FEET WITH NO
SIGNIFICANT WEATHER AND/OR OBSTRUCTIONS TO VISIBILITY.

* - THESE STATIONS ARE NOT NWS STATIONS...THUS NOT UNDER NWS
QUALITY CONTROL.  THEY ALSO DO NOT REPORT WEATHER SUCH
AS PRECIPITATION OR FOG.

IAZ001>003-012>014-020>022-031>034-043>046-031900-
   NORTHWEST IOWA

CITY           SKY/WX    TMP DP  RH WIND       PRES   REMARKS
CARROLL *      SUNNY     72  52  49 CALM      30.02S
CHEROKEE *     SUNNY     72  53  52 CALM      30.01F
DENISON *      SUNNY     72  55  56 S5        30.01S
LE MARS *      SUNNY     72  55  56 VRB3      30.02F
ORANGE CITY *  SUNNY     70  55  60 SW5       30.01F
SHELDON *      SUNNY     72  54  53 CALM      30.00F
SIOUX CITY     SUNNY     74  55  51 NW3       30.02S
6HR MIN TEMP:  54; 6HR MAX TEMP:  74;

SPENCER        SUNNY     75  54  47 VRB3      30.01F
6HR MIN TEMP:  48; 6HR MAX TEMP:  75;

STORM LAKE *   SUNNY     72  50  46 CALM      30.03F
$$

IAZ055>058-069>071-079>083-090>094-031900-
   SOUTHWEST IOWA

CITY           SKY/WX    TMP DP  RH WIND       PRES   REMARKS
ATLANTIC *     SUNNY     73  50  43 E5        30.02S
AUDUBON *      SUNNY     73  55  53 NE6       30.03F
CLARINDA *     SUNNY     75  54  46 VRB6      30.03S
COUNCIL BLFS * SUNNY     72  54  53 CALM      30.03S
CRESTON *      SUNNY     72  54  53 NE9       30.02S
HARLAN  *      SUNNY     72  55  56 CALM      30.05F
LAMONI         SUNNY     74  59  59 NE5       30.01R
6HR MIN TEMP:  60; 6HR MAX TEMP:  75;

RED OAK *      SUNNY     75  50  41 NE7       30.01F
SHENANDOAH *   SUNNY     75  57  53 NE7       30.02S
$$

IAZ047>049-059>061-072>074-084-031900-
   CENTRAL IOWA

CITY           SKY/WX    TMP DP  RH WIND       PRES   REMARKS
AMES           SUNNY     74  55  51 NW3       30.01S
6HR MIN TEMP:  55; 6HR MAX TEMP:  75;

ANKENY *       SUNNY     73  59  60 NE6G13    30.00F
CHARITON *     SUNNY     72  55  56 N6        30.01S
DES MOINES     MOSUNNY   76  53  44 N9        30.00F
6HR MIN TEMP:  61; 6HR MAX TEMP:  76;

GRINNELL*      SUNNY     72  51  48 CALM      30.01F
KNOXVILLE *    SUNNY     72  52  49 VRB5      30.00S
MARSHALLTOWN   SUNNY     74  56  53 E5        30.00S
6HR MIN TEMP:  56; 6HR MAX TEMP:  74;

PELLA *        SUNNY     74  59  58 N5        30.01F
PERRY *          N/A     73  54  49 SE3       30.01F
$$

IAZ004>006-015-016-023>025-035-036-031900-
   NORTH CENTRAL IOWA

CITY           SKY/WX    TMP DP  RH WIND       PRES   REMARKS
ALGONA *       SUNNY     73  54  49 S8        30.01S
CLARION *      SUNNY     73  54  49 CALM      30.01S
ESTHERVILLE    SUNNY     74  57  55 CALM      30.00F
6HR MIN TEMP:  50; 6HR MAX TEMP:  74;

FORT DODGE *   SUNNY     73  52  46 S3        30.02F
MASON CITY     MOSUNNY   76  58  53 VRB3      30.01F
6HR MIN TEMP:  55; 6HR MAX TEMP:  76;

FOREST CITY *  SUNNY     72  55  56 CALM      30.00F
IOWA FALLS *     N/A     73  57  56 SW3       30.02S
$$

IAZ007>011-017>019-026>030-037>042-050>054-066-031900-
   NORTHEAST IOWA

CITY           SKY/WX    TMP DP  RH WIND       PRES   REMARKS
CEDAR RAPIDS   SUNNY     73  56  54 VRB3      29.99S
6HR MIN TEMP:  57; 6HR MAX TEMP:  73;

CHARLES CITY * PTSUNNY   73  59  60 VRB5      30.00F
CLINTON *      MOSUNNY   73  57  56 E5        30.01S
DECORAH *        N/A    N/A N/A N/A MISG        N/A
DUBUQUE        SUNNY     71  51  49 E3        30.00S
6HR MIN TEMP:  55; 6HR MAX TEMP:  72;

MONTICELLO *   SUNNY     73  55  53 NE7       29.99S
OELWEIN *      SUNNY     72  55  56 W3        30.00F
WATERLOO       SUNNY     73  51  46 S3        29.99F
6HR MIN TEMP:  54; 6HR MAX TEMP:  75;

$$

IAZ064-065-067-068-078-031900-
   EAST CENTRAL IOWA

CITY           SKY/WX    TMP DP  RH WIND       PRES   REMARKS
DAVENPORT      MOSUNNY   74  58  57 VRB3      29.99R
6HR MIN TEMP:  58; 6HR MAX TEMP:  75;

IOWA CITY      SUNNY     75  59  57 NE7       30.00S
6HR MIN TEMP:  61; 6HR MAX TEMP:  75;

MT. PLEASANT * SUNNY     77  55  46 N5        29.99R
MUSCATINE *    SUNNY     75  59  57 NE7       29.98S
QUAD CITIES    MOSUNNY   76  58  53 NE7       29.98R
6HR MIN TEMP:  61; 6HR MAX TEMP:  76;

$$

IAZ062-063-075>077-085>089-095>099-031900-
   SOUTHEAST IOWA

CITY           SKY/WX    TMP DP  RH WIND       PRES   REMARKS
BURLINGTON     MOSUNNY   76  61  59 NE6       29.97S
6HR MIN TEMP:  62; 6HR MAX TEMP:  76;

FAIRFIELD *    SUNNY     73  54  49 NE6G14    30.00R
FORT MADISON * SUNNY     73  63  68 N5        29.98S
KEOKUK *       SUNNY     75  59  57 VRB5G12   29.97R
OSKALOOSA *      N/A     73  57  57 CALM      30.00F
CENTERVILLE *  SUNNY     72  57  60 NE5       30.01F
OTTUMWA        SUNNY     74  57  55 VRB5      29.98S
6HR MIN TEMP:  60; 6HR MAX TEMP:  74;

WASHINGTON *   SUNNY     73  59  60 VRB7      30.01S
$$

ABBREVIATIONS USED IN REMARKS
   TC - TEMPERATURES IN CELSIUS
  WCI - WIND CHILL INDEX
   HX - HEAT INDEX
  VSB - VISIBILITY
$$



USA.gov is the U.S. government's official web portal to all federal, state and local government web resources and services.